Location: Carabito
(9.8355°N, 67.9249°W)
Time: 12:54:49
(UTC+00:00)

SEDSat Delta rocket - Pass Details

Date: 23 May 2024
Orbit: 531 x 982 km, 31.4° (Epoch: 25 June)

Event Time Altitude Azimuth Distance (km) Brightness Sun altitude
Rises 00:33:02 0° 286° (WNW) 3,179 8.0 -24.6°
Reaches altitude 10° 00:35:53 10° 275° (W) 2,169 6.7 -25.2°
Maximum altitude 00:40:13 29° 216° (SW) 1,196 4.5 -26.2°
Enters shadow 00:40:14 29° 216° (SW) 1,195 4.5 -26.2°
